FW8705 Weather Reports


time (UTC)temp
C
wind
direction
speed
KPH
gust
KPH
rain 1hr
cm
rain 24hr
cm
rain mn
cm
humidity
%
barometer
mb
20260506184601 21 0 0.0 0.0 0.00 0.00 0.00 56 1005.3
20260506183055 21 0 0.0 0.0 0.00 0.00 0.00 54 1005.1
20260506181551 22 0 0.0 0.0 0.00 0.00 0.00 52 1005.1
20260506180056 22 0 0.0 6.4 0.00 0.00 0.00 51 1005.1
20260506174554 23 0 0.0 11.3 0.00 0.00 0.00 49 1005.1
20260506173113 24 0 1.6 9.7 0.00 0.00 0.00 49 1005.2
20260506171557 23 0 0.0 11.3 0.00 0.00 0.00 50 1005.0
20260506170057 23 0 0.0 8.0 0.00 0.00 0.00 50 1005.0
20260506164555 23 0 1.6 16.1 0.00 0.00 0.00 51 1005.2
20260506163109 23 0 0.0 6.4 0.00 0.00 0.00 52 1005.2
20260506161600 23 163 0.0 9.7 0.00 0.00 0.00 51 1005.3
20260506160054 23 0 0.0 9.7 0.00 0.00 0.00 50 1005.5
20260506154600 23 161 0.0 8.0 0.00 0.00 0.00 51 1005.8
20260506153052 23 175 0.0 8.0 0.00 0.00 0.00 51 1005.8
20260506151555 23 173 1.6 14.5 0.00 0.00 0.00 51 1005.9
20260506150053 23 198 6.4 14.5 0.00 0.00 0.00 50 1006.1
20260506144559 23 171 6.4 16.1 0.00 0.00 0.00 48 1006.1
20260506143053 23 0 8.0 19.3 0.00 0.00 0.00 49 1006.1
20260506141556 23 166 6.4 19.3 0.00 0.00 0.00 49 1006.4
20260506134557 24 0 6.4 20.9 0.00 0.00 0.00 47 1006.5
20260506133056 25 191 4.8 19.3 0.00 0.00 0.00 46 1006.4
20260506131558 24 254 3.2 20.9 0.00 0.00 0.00 48 1006.6
20260506130054 23 172 1.6 19.3 0.00 0.00 0.00 48 1006.8
20260506124558 23 167 6.4 20.9 0.00 0.00 0.00 49 1007.1
20260506123054 23 179 9.7 27.4 0.00 0.00 0.00 48 1007.1
20260506121600 23 169 4.8 22.5 0.00 0.00 0.00 52 1007.0
20260506120110 23 100 3.2 19.3 0.00 0.00 0.00 51 1007.0
20260506114610 22 145 6.4 19.3 0.00 0.00 0.00 52 1007.2
20260506113054 22 237 8.0 25.7 0.00 0.00 0.00 54 1007.0
20260506111555 22 176 3.2 22.5 0.00 0.00 0.00 54 1007.0
20260506110054 21 180 8.0 27.4 0.00 0.00 0.00 57 1007.1
20260506104555 21 178 11.3 25.7 0.00 0.00 0.00 56 1007.3
20260506103052 21 0 6.4 19.3 0.00 0.00 0.00 57 1007.1
20260506101557 21 189 6.4 20.9 0.00 0.00 0.00 57 1007.4
20260506100057 21 173 4.8 20.9 0.00 0.00 0.00 58 1007.3
20260506094557 20 302 6.4 27.4 0.00 0.00 0.00 61 1007.3
20260506093108 20 180 8.0 29.0 0.00 0.00 0.00 62 1007.4
20260506091555 20 169 11.3 27.4 0.00 0.00 0.00 61 1007.3
20260506090103 20 172 3.2 19.3 0.00 0.00 0.00 63 1007.1
20260506084556 20 178 9.7 25.7 0.00 0.00 0.00 64 1007.0
20260506083054 19 80 6.4 25.7 0.00 0.00 0.00 65 1006.8
20260506081553 18 174 3.2 25.7 0.00 0.00 0.00 67 1007.0
20260506080107 18 178 4.8 27.4 0.00 0.00 0.00 68 1006.8
20260506073111 17 190 8.0 25.7 0.00 0.00 0.00 68 1007.0
20260506071557 17 169 6.4 24.1 0.00 0.00 0.00 69 1006.8
20260506061603 16 176 4.8 27.4 0.00 0.00 0.00 71 1006.5
20260506044611 13 0 0.0 1.6 0.00 0.00 0.00 77 1006.0
20260506043056 13 0 0.0 0.0 0.00 0.00 0.00 78 1006.0
20260506041608 12 0 0.0 0.0 0.00 0.00 0.00 81 1005.9
20260506034558 11 0 0.0 0.0 0.00 0.00 0.00 82 1005.8
20260506033055 11 0 0.0 0.0 0.00 0.00 0.00 80 1005.7
20260506031600 12 0 0.0 0.0 0.00 0.00 0.00 77 1005.8
20260506030055 12 0 0.0 0.0 0.00 0.00 0.00 75 1005.8
20260506024608 13 0 0.0 0.0 0.00 0.00 0.00 74 1005.9
20260506023056 13 0 0.0 0.0 0.00 0.00 0.00 73 1006.0
20260506021554 13 0 0.0 0.0 0.00 0.00 0.00 71 1005.9
20260506020121 13 0 0.0 0.0 0.00 0.00 0.00 70 1005.8
20260506014556 13 0 0.0 0.0 0.00 0.00 0.00 70 1005.9
20260506013057 13 0 0.0 0.0 0.00 0.00 0.00 71 1005.9
20260506011553 13 0 0.0 0.0 0.00 0.00 0.00 70 1005.8
20260506010054 14 0 0.0 0.0 0.00 0.00 0.00 68 1005.8
20260506004552 14 0 0.0 0.0 0.00 0.00 0.00 67 1005.8
20260506003058 15 0 0.0 0.0 0.00 0.00 0.00 66 1005.5
20260506001607 15 0 0.0 0.0 0.00 0.00 0.00 64 1005.8
20260506000123 15 0 0.0 1.6 0.00 0.00 0.00 63 1005.9
20260505234610 15 0 0.0 0.0 0.00 0.00 0.00 64 1005.9
20260505233055 15 0 0.0 0.0 0.00 0.00 0.00 64 1006.0
20260505231559 15 0 0.0 0.0 0.00 0.00 0.00 63 1006.2
20260505230100 16 0 0.0 0.0 0.00 0.00 0.00 61 1006.2
20260505224556 16 0 0.0 0.0 0.00 0.00 0.00 61 1006.2
20260505223104 17 0 0.0 0.0 0.00 0.00 0.00 58 1006.2
20260505221558 17 0 0.0 0.0 0.00 0.00 0.00 57 1006.2
20260505220106 17 0 0.0 0.0 0.00 0.00 0.00 56 1006.2
20260505214604 18 0 0.0 0.0 0.00 0.00 0.00 54 1006.4
20260505213056 18 0 0.0 0.0 0.00 0.00 0.00 52 1006.2
20260505211631 19 0 0.0 1.6 0.00 0.00 0.00 51 1006.4
20260505210053 19 0 0.0 9.7 0.00 0.00 0.00 51 1006.5
20260505204603 19 0 0.0 1.6 0.00 0.00 0.00 53 1006.6
20260505203055 19 0 0.0 1.6 0.00 0.00 0.00 54 1006.6
20260505201555 19 0 0.0 0.0 0.00 0.00 0.00 53 1006.6
20260505200052 20 0 0.0 0.0 0.00 0.00 0.00 52 1006.4
20260505194553 20 0 0.0 0.0 0.00 0.00 0.00 52 1006.4
20260505193053 20 0 0.0 0.0 0.00 0.00 0.00 51 1006.2
20260505191600 21 0 0.0 0.0 0.00 0.00 0.00 49 1006.4
20260505190058 21 0 0.0 0.0 0.00 0.00 0.00 47 1006.4